Dewpoint
53 52 52 52 51 51 52 51 52 52 53 54 54 54 55 55 56 43 34 41 48 58 56 36 34 32 29 24 25 21 10 5 6 6 9 13 17 17 20 19 19 18 21 26 27
53 53 52 52 52 52 52 52 52 53 54 54 54 55 56 56 41 34 48 52 53 56 36 33 30 31 27 25 25 20 12 7 11 11 14 15 19 19 18 19 15 13 18 22 22
54 53 53 53 53 53 53 52 53 53 54 54 54 55 56 55 34 35 55 54 53 51 40 36 32 29 27 28 27 25 17 20 20 22 23 23 24 22 22 22 23 20 21 22 23
54 54 54 53 53 54 54 54 54 54 54 54 55 56 57 48 24 36 57 56 54 46 37 35 33 27 25 23 25 22 22 24 22 22 23 22 23 22 23 24 24 24 25 26 27
54 54 54 54 54 54 54 54 54 54 54 54 55 57 52 32 30 43 59 56 45 39 36 35 33 32 27 28 29 26 23 24 25 25 24 24 24 22 19 19 19 22 26 28 32
54 54 54 54 54 54 55 55 54 54 54 55 56 57 44 27 36 40 45 42 39 37 36 36 34 34 30 30 30 29 29 29 29 28 27 25 21 21 23 22 20 22 25 25 27
55 54 54 54 54 54 54 55 54 54 54 55 56 48 36 28 37 39 41 39 39 38 36 36 36 34 33 31 31 30 28 27 25 23 22 25 26 25 25 25 22 23 25 28 32
55 54 53 53 54 54 54 54 54 54 54 55 56 47 29 35 37 39 39 40 42 41 40 38 38 36 33 32 31 28 29 23 25 28 28 28 22 23 27 27 27 26 25 26 30
55 54 53 53 53 54 54 53 53 54 54 55 47 42 22 40 31 36 40 36 36 38 39 37 36 34 33 29 26 29 22 24 25 27 29 29 25 27 30 30 31 32 33 33 32
55 54 54 53 53 53 53 52 53 54 52 48 42 35 19 23 30 29 35 38 34 34 33 36 34 32 30 27 22 24 25 26 26 26 27 27 27 29 30 31 32 33 34 34 36
55 54 54 54 53 53 50 47 40 40 35 25 23 22 22 28 32 29 30 33 35 34 29 32 33 26 29 30 30 30 29 27 28 27 29 30 30 31 33 33 34 34 35 36 38
54 54 54 53 52 52 47 34 38 40 36 33 31 29 22 28 27 28 29 31 31 29 31 31 28 29 30 31 30 30 29 28 29 29 32 32 32 33 34 35 35 35 35 37 39
53 53 53 53 52 49 35 34 35 38 37 27 23 23 21 23 26 27 30 31 31 30 29 30 29 31 31 30 30 30 30 30 31 32 33 32 31 31 33 33 32 33 34 36 38
53 53 52 52 45 36 31 36 34 38 34 19 18 22 20 22 26 27 31 34 30 29 32 29 30 30 30 31 31 29 30 32 32 33 30 34 32 33 32 32 29 34 36 36 35
53 52 52 50 41 31 35 39 39 42 24 21 21 24 19 23 24 25 32 33 31 31 31 24 28 30 31 29 31 31 33 34 35 34 36 32 33 32 31 29 31 34 39 41 39
52 52 51 44 42 35 37 42 42 30 18 23 21 20 17 21 23 26 29 33 34 31 31 28 29 31 30 32 32 33 35 35 36 34 36 31 30 29 30 35 35 38 42 42 41
52 51 49 41 32 35 41 41 29 23 22 22 21 21 18 22 22 24 25 31 31 32 29 29 26 30 32 29 32 33 37 35 34 34 25 32 33 32 37 39 40 41 42 41 41
50 49 49 38 36 39 39 28 23 21 23 25 23 19 20 23 21 24 24 25 32 31 30 29 26 27 30 30 32 34 38 35 29 31 29 31 35 37 40 42 43 44 44 43 40
49 41 41 37 39 40 32 24 23 24 25 25 23 17 18 21 22 19 23 26 30 32 32 32 27 31 30 31 33 33 36 38 35 38 35 33 36 40 40 41 43 45 46 46 45
42 40 36 38 43 40 27 27 27 28 26 24 22 20 21 24 24 21 22 28 30 32 34 34 35 30 30 31 35 34 37 35 38 32 32 25 33 36 38 42 45 45 47 49 49
43 34 36 39 42 29 27 27 27 28 28 26 23 24 22 25 26 22 23 24 29 29 31 34 36 32 31 27 30 29 32 37 39 38 32 33 32 40 42 44 45 46 47 48 49
41 26 37 42 29 32 27 30 33 29 29 27 28 25 27 27 28 25 24 25 31 31 28 35 36 33 29 29 32 30 31 36 36 36 38 36 36 40 45 44 44 45 47 49 51
36 36 38 41 29 29 31 29 29 29 29 27 29 27 29 30 30 27 27 28 28 31 29 36 37 32 27 30 32 32 32 35 39 40 37 33 36 40 43 44 44 45 47 50 54
37 30 34 36 36 34 32 31 29 30 30 32 31 29 31 32 31 30 28 28 27 25 40 37 38 36 35 32 32 33 32 34 34 36 36 38 36 39 43 42 44 45 47 50 52
38 37 38 31 33 35 34 32 29 31 32 33 31 30 32 31 30 27 26 24 25 32 39 41 36 34 32 33 31 31 34 32 33 36 37 37 35 40 44 45 45 45 47 50 51
38 36 38 37 37 34 34 35 31 33 33 31 33 34 32 34 31 30 29 29 28 29 34 38 36 36 34 29 28 29 33 34 33 38 38 36 37 42 47 47 44 44 45 48 49
41 42 38 37 34 32 34 34 33 35 33 34 35 36 35 33 35 35 35 36 35 34 36 37 37 35 29 30 30 34 35 35 34 39 36 36 39 44 46 46 44 43 45 47 49
Lifted_Index
14 15 15 16 16 15 14 14 14 14 14 14 13 13 13 12 12 11 12 12 11 11 11 12 13 13 13 13 13 12 10 9 10 12 12 13 13 13 13 13 13 12 12 11 11
14 14 15 15 15 14 14 14 14 13 13 13 13 13 13 12 11 11 11 11 11 11 12 12 13 13 13 13 13 12 11 11 12 13 13 13 13 13 13 13 13 12 12 11 11
14 14 14 14 14 13 13 13 13 13 13 13 13 13 12 11 10 10 10 10 11 11 12 12 12 13 13 13 13 12 12 12 13 13 13 13 13 13 13 13 13 12 12 12 11
14 14 13 13 13 13 13 13 13 13 12 12 12 12 11 10 10 10 9 10 10 11 12 12 12 12 13 13 12 12 12 11 11 11 11 11 11 12 12 13 13 12 12 12 11
15 14 13 12 13 13 12 12 12 12 12 12 12 11 11 10 10 10 9 9 10 11 11 11 12 12 12 12 11 11 10 9 8 8 8 8 9 10 11 12 12 13 12 12 11
14 14 13 13 13 12 12 12 12 12 12 11 11 11 10 10 10 10 9 10 10 11 11 11 11 12 11 11 10 9 8 7 6 6 6 6 7 7 8 9 11 11 12 12 11
14 14 13 12 12 12 12 11 11 11 11 11 11 10 10 10 10 10 10 10 10 10 11 11 11 11 11 10 8 7 6 5 5 5 6 5 5 5 5 6 8 9 10 11 11
14 13 12 12 12 11 11 11 11 11 11 11 10 10 10 10 10 10 9 9 10 10 10 11 11 11 10 9 7 5 4 4 4 4 5 5 4 4 4 5 5 6 7 9 9
13 13 12 12 11 11 10 10 10 10 10 10 9 9 10 10 10 10 9 9 10 10 10 10 10 10 9 7 5 4 3 3 4 4 4 4 4 3 3 4 4 4 5 6 7
12 12 12 12 11 11 10 10 9 9 9 10 10 10 10 11 10 10 10 10 10 10 10 9 9 8 7 5 4 3 3 4 4 4 4 4 4 3 3 3 3 3 4 4 5
11 11 11 11 11 11 10 9 8 8 8 9 10 10 11 11 11 11 10 10 9 9 9 8 7 6 5 5 4 4 4 4 4 3 3 3 3 2 2 2 3 3 3 3 4
10 10 11 11 11 11 10 9 8 8 8 9 10 11 11 11 11 11 10 10 9 8 7 7 6 5 5 5 4 4 4 4 3 3 3 3 3 2 2 3 3 3 3 3 3
10 10 10 11 11 11 10 10 10 8 8 8 10 11 11 11 11 11 10 9 8 7 7 6 5 5 5 5 4 4 3 3 3 3 2 2 2 2 2 3 3 3 3 3 3
10 10 10 10 10 10 10 10 10 8 7 8 10 11 11 11 11 10 10 8 7 7 6 5 5 5 5 4 4 3 3 3 2 2 2 2 2 2 2 2 3 2 2 2 2
10 10 11 10 9 9 10 9 9 6 5 7 10 10 11 11 10 10 9 8 7 6 6 5 5 4 4 4 4 3 3 2 2 1 1 1 1 1 1 2 2 1 1 0 1
10 10 10 10 9 10 9 8 7 5 5 7 9 10 10 10 10 9 8 7 6 6 5 5 5 4 4 4 3 3 2 2 1 1 1 1 1 1 1 1 1 1 0 -1 -1
9 10 10 10 10 10 9 7 6 5 6 7 8 9 9 9 9 8 7 6 5 5 4 4 4 4 4 3 3 2 2 1 1 0 0 1 1 1 1 1 1 0 -1 -2 -2
9 9 9 10 10 10 9 7 6 6 7 8 8 9 8 8 8 8 7 6 5 4 4 3 3 3 3 3 2 1 1 1 1 0 1 1 1 1 1 1 -0 -1 -2 -3 -3
10 9 9 10 10 9 8 7 6 7 8 8 8 8 7 7 7 7 6 5 5 5 4 4 3 3 3 3 2 1 1 1 1 1 1 1 1 1 1 1 -1 -2 -2 -3 -4
10 9 9 9 9 8 7 7 7 8 8 8 7 7 7 7 7 6 6 6 5 5 5 4 3 3 2 2 1 1 1 1 1 1 1 0 1 1 1 1 -0 -1 -2 -3 -4
9 9 9 9 8 7 7 7 7 8 8 8 7 7 7 6 6 6 6 6 5 5 5 4 4 3 2 1 1 1 1 1 1 1 0 0 1 1 2 1 0 -0 -1 -3 -4
9 9 9 8 7 7 7 7 7 7 7 7 7 7 7 6 6 6 6 6 6 5 5 4 4 3 2 1 1 1 1 1 1 1 0 0 1 1 2 2 1 0 -1 -3 -5
8 8 8 7 6 6 6 6 7 7 7 7 7 6 6 6 6 6 6 6 6 6 5 4 3 2 2 2 1 1 1 1 1 1 1 1 1 1 2 2 1 0 -1 -3 -4
7 7 7 6 6 6 6 6 6 6 6 6 6 6 6 5 5 6 6 6 6 6 5 4 3 2 2 2 2 2 1 1 1 1 1 1 1 2 2 2 1 -0 -1 -2 -3
7 7 6 6 6 6 6 5 5 6 6 6 5 6 5 5 5 5 6 6 6 5 4 3 3 2 2 2 2 2 1 1 1 1 1 1 1 2 2 2 1 -0 -1 -2 -2
7 7 6 6 6 6 5 5 5 6 5 5 5 5 5 5 5 5 6 6 6 5 4 3 3 3 2 2 2 2 1 1 1 1 2 2 1 2 2 2 1 -0 -1 -2 -2
8 7 7 6 6 6 5 5 5 6 5 5 5 5 5 5 5 5 6 6 6 5 4 4 3 3 2 2 1 1 1 1 1 1 2 2 2 2 2 1 1 -0 -1 -2 -2